Powrót do katalogu

STARLINK-32865

AktywnyŁącznośćVLEO
NORAD 62952·PAYLOAD·🇺🇸 United States

Wystrzelony Feb 11, 2025 z Vandenberg Space Force Base

Loading…

Następne Przeloty (najbliższe 24 godziny)

TLE

ŚwieżeSource: CelesTrak SupGP

Epoka: Sep 14, 2026, 21:12 UTC

1 62952C 25029E   26257.88381944  .00012176  00000+0  39166-3 0  2570
2 62952  53.1589  72.1777 0001324  84.2658 328.1006 15.31687018    12

Śledź STARLINK-32865 w czasie rzeczywistym z AllMySat

Download on the App Store